| DS18B20 | SHTC3 | ||||||
|---|---|---|---|---|---|---|---|
| ID | Date d/m/Y & Time | data1 สูง | data2 ต่ำ | data3 นอก | temp pcb | hum pcb | Time |
| 8261 | 03/04/2026 00:16:50 | 28.7  | 28.7  | 27.6  | 28.6  | 71.9  | 00:16 |
| 8260 | 03/04/2026 00:12:09 | 28.7  | 28.7  | 27.6  | 28.5  | 72.0  | 00:12 |
| 8259 | 03/04/2026 00:07:27 | 28.7  | 28.8  | 27.6  | 28.6  | 72.0  | 00:07 |
| 8258 | 03/04/2026 00:02:45 | 28.7  | 28.8  | 27.7  | 28.6  | 72.0  | 00:02 |
| 8257 | 02/04/2026 23:58:03 | 28.8  | 28.8  | 27.7  | 28.6  | 72.0  | 23:58 |
| 8256 | 02/04/2026 23:53:21 | 28.8  | 28.8  | 27.8  | 28.5  | 72.0  | 23:53 |
| 8255 | 02/04/2026 23:48:39 | 28.8  | 28.8  | 27.8  | 28.6  | 71.9  | 23:48 |
| 8254 | 02/04/2026 23:43:57 | 28.8  | 28.8  | 27.8  | 28.7  | 72.0  | 23:43 |
| 8253 | 02/04/2026 23:39:16 | 28.8  | 28.8  | 27.9  | 28.7  | 71.9  | 23:39 |
| 8252 | 02/04/2026 23:34:34 | 28.8  | 28.9  | 27.9  | 28.6  | 71.9  | 23:34 |
| 8251 | 02/04/2026 23:29:53 | 28.8  | 28.9  | 27.9  | 28.7  | 71.9  | 23:29 |
| 8250 | 02/04/2026 23:25:11 | 28.9  | 28.9  | 27.9  | 28.6  | 71.8  | 23:25 |
| 8249 | 02/04/2026 23:20:29 | 28.9  | 28.9  | 27.9  | 28.6  | 71.8  | 23:20 |
| 8248 | 02/04/2026 23:15:47 | 28.9  | 28.9  | 27.9  | 28.8  | 72.0  | 23:15 |
| 8247 | 02/04/2026 23:11:05 | 28.9  | 28.9  | 27.9  | 28.7  | 71.9  | 23:11 |
| 8246 | 02/04/2026 23:06:23 | 28.9  | 28.9  | 27.9  | 28.8  | 71.9  | 23:06 |
| 8245 | 02/04/2026 23:01:41 | 28.9  | 28.9  | 27.9  | 28.9  | 71.9  | 23:01 |
| 8244 | 02/04/2026 22:56:59 | 28.9  | 29.0  | 27.9  | 28.6  | 71.7  | 22:56 |
| 8243 | 02/04/2026 22:52:18 | 28.9  | 29.0  | 27.9  | 28.9  | 71.8  | 22:52 |
| 8242 | 02/04/2026 22:47:36 | 28.9  | 29.0  | 27.9  | 28.9  | 71.7  | 22:47 |
| 8241 | 02/04/2026 22:42:55 | 29.0  | 29.0  | 28.0  | 28.8  | 71.8  | 22:42 |
| 8240 | 02/04/2026 22:38:13 | 29.0  | 29.1  | 28.0  | 28.9  | 71.9  | 22:38 |
| 8239 | 02/04/2026 22:33:31 | 29.0  | 29.1  | 28.0  | 28.9  | 71.8  | 22:33 |
| 8238 | 02/04/2026 22:28:49 | 29.1  | 29.1  | 28.0  | 28.9  | 71.7  | 22:28 |